User: anonymous   Login
Location: *
(33.8649°S, 62.1526°E)
Time: 10:48:08
(UTC+00:00)
Language:

SJ-6B - Orbit

View from above orbital plane
View from above orbital plane
View from above satellite
View from above satellite

Ground track
Ground track

The orbit data is extracted from the following two-line orbital elements,

1 28415U 04035C   21112.72939878  .00000811  00000-0  56738-4 0  9995
2 28415  97.5714 156.1834 0051757  19.2663 341.0506 15.07086353910215
Epoch (UTC): 22 April 2021 17:30:20
Eccentricity: 0.0051757
inclination: 97.5714°
perigee height: 509 km
apogee height: 581 km
right ascension of ascending node: 156.1834°
argument of perigee: 19.2663°
revolutions per day: 15.07086353
mean anomaly at epoch: 341.0506°
orbit number at epoch: 91021

The dashed part of the orbit path shows where the satellite is in the earth's shadow,  

DLR